www.pogodaiklimat.ru

Погода и климат >> Архив погоды >> Германия >> Эмден


ПОГОДА в Эмдене

  • Прогноз погоды в Эмдене
  • Монитор погоды в Эмдене

АРХИВ ПОГОДЫ в Эмдене

Время (UTC), дата Ветер
(напр.,м/с)
 
Видим.   Явления Облачность Т
(С)
Тd
(С)
f
(%)
Тe
(С)
Тes
(С)
Комфортность P
(гПа)
Po
(гПа)
Тmin
(С)
Tmax
(С)
R
(мм)
R24
(мм)
S
(см)
13 12.08 ЮЗ 3 60 км слаб. дождь 10/10 1380 м
[]
+17.4 +14.1 81 +17 +17 1013.2 1013.4
14 12.08 ЮЗ 3 >70 км в посл. час дождь {морось} 10/0
[]
+18.4 +13.2 72 +19 +23 1013.1 1013.3
15 12.08 З 4 25 км слаб. дождь {морось} 9/9 870 м
[]
+18.0 +12.6 71 +18 +18 1013.0 1013.2 1
16 12.08 З 4-6
{7}
>70 км в посл. час дождь {ливн. осадки} 3/0
[]
+19.2 +13.4 69 +20 +23 1012.5 1012.7
17 12.08 З 4 >70 км 10/10 960 м
[]
+18.6 +13.1 70 +19 +19 1012.0 1012.2
18 12.08 З 3 55 км {ливн. осадки, дождь} 9/9 600 м
[]
+17.9 +12.8 72 +18 +18 1012.1 1012.3 +15.3 +21.8 3
19 12.08 З 4 55 км 10/0
[]
+16.2 +11.0 71 +16 +16 1013.0 1013.2
20 12.08 З 3 40 км слаб. дождь {морось} 9/0 2000 м
[]
+15.5 +11.9 79 +15 +15 1013.8 1014.0
21 12.08 З 3 50 км в посл. час дождь {морось} 10/0
[]
+15.1 +11.0 76 +14 +14 1013.5 1013.7 0.0
22 12.08 ЮЗ 3 55 км в посл. час дождь 9/9 1500 м
[]
+15.3 +11.5 78 +15 +15 1013.5 1013.7
23 12.08 ЮЗ 2 50 км 10/10 1500 м
[]
+15.3 +11.6 79 +15 +15 1013.3 1013.5
00 13.08 ЮЗ 2 50 км {дождь, морось} 10/10 600 м
[]
+15.2 +11.8 80 +15 +15 1013.1 1013.3 0.0
01 13.08 ЮЗ 2 60 км 9/9 840 м
[]
+15.0 +11.7 81 +15 +15 1012.9 1013.1
02 13.08 ЮЗ 2 55 км 9/9 1500 м
[]
+14.4 +11.6 83 +14 +14 1013.0 1013.2
03 13.08 ЮЗ 2 65 км 10/0 2000 м
[]
+14.0 +11.3 84 +13 +13 1012.8 1013.0
04 13.08 ЮЗ 2 40 км слаб. дождь {морось} 10/10 1500 м
[]
+14.0 +11.4 84 +13 +13 1012.8 1013.0
05 13.08 З 4 30 км слаб. дождь {морось} 10/10 630 м
[]
+13.8 +11.4 85 +12 +12 1013.0 1013.2
06 13.08 З 4 45 км слаб. дождь {морось} 10/10 300 м
[]
+13.7 +12.4 92 +12 +12 1013.4 1013.6 +13.5 +17.8 0.2
07 13.08 ЮЗ 3 50 км слаб. морось {дождь} 10/10 1500 м
[]
+13.6 +12.2 91 +12 +12 1013.9 1014.1
08 13.08 З 5 35 км слаб. морось {дождь} 10/10 750 м
[]
+13.6 +11.3 86 +12 +12 1014.6 1014.8
09 13.08 СЗ 3 50 км в посл. час дождь {морось} 10/10 300 м
[]
+14.7 +11.4 81 +14 +14 1014.9 1015.1 0.4
10 13.08 З 4 >70 км слаб. морось {дождь} 10/10 540 м
[]
+15.4 +11.3 77 +14 +14 1015.2 1015.4
11 13.08 З 3 >70 км в посл. час морось 4/4 870 м
[]
+17.5 +10.3 63 +18 +24 1015.0 1015.2
12 13.08 СЗ 3 40 км слаб. дождь 10/10 700 м
[]
+13.7 +10.7 82 +13 +13 1015.9 1016.1 1
13 13.08 ЮЗ 3 >70 км в посл. час дождь {морось} 10/10 870 м
[]
+17.1 +11.3 69 +17 +17 1015.5 1015.7
14 13.08 З 4 >70 км 6/6 1020 м
[]
+18.3 +9.6 57 +18 +21 1015.6 1015.8
15 13.08 З 5 >70 км в посл. час дождь {морось} 5/0
[]
+18.6 +8.7 52 +19 +21 1015.3 1015.5 0.2
16 13.08 З 4 60 км слаб. дождь 10/10 1500 м
[]
+15.9 +10.2 69 +15 +15 1015.5 1015.7
17 13.08 Ю 4 55 км слаб. дождь {морось} 10/10 1500 м
[]
+13.4 +11.2 87 +12 +12 1015.8 1016.0
18 13.08 ЮЗ 2 >70 км в посл. час дождь {морось} 10/10 1500 м
[]
+13.4 +10.9 85 +13 +13 1016.1 1016.3 +13.2 +18.8 2
19 13.08 Ю 2 >70 км в посл. час дождь {морось} 9/0 2000 м
[]
+13.1 +11.2 88 +12 +12 1015.9 1016.1
20 13.08 Ю 3-4
{6}
>70 км 3/0 2000 м
[]
+13.0 +10.9 87 +12 +12 1015.9 1016.1
21 13.08 ЮЗ 4-6
{6}
>70 км {дождь, морось} ясно +13.2 +10.7 85 +11 +11 1015.9 1016.1 0.0
22 13.08 ЮЗ 3-4
{7}
45 км 3/3 1500 м
[]
+12.7 +11.1 90 +11 +11 1015.8 1016.0
23 13.08 ЮЗ 3-5
{6}
50 км ясно +12.6 +10.9 89 +11 +11 1015.6 1015.8
00 14.08 ЮЗ 2 35 км {дождь, морось} ясно +12.2 +10.6 90 +11 +11 1015.8 1016.0
01 14.08 ЮЗ 2-3
{4}
45 км ясно +12.0 +10.1 88 +11 +11 1015.8 1016.0
02 14.08 ЮЗ 2-3
{3}
35 км ясно +11.7 +10.4 92 +10 +10 1016.0 1016.2
03 14.08 ЮЗ 3-5
{6}
30 км ясно +11.4 +10.1 92 +9 +9 1016.0 1016.2
04 14.08 ЮЗ 3-4
{4}
35 км ясно +11.2 +9.8 91 +9 +9 1016.0 1016.2
05 14.08 ЮЗ 3-4
{5}
30 км ясно +11.4 +9.8 90 +10 +10 1016.1 1016.3
06 14.08 ЮЗ 3 45 км ясно +12.5 +10.5 88 +11 +12 1016.3 1016.5 +11.0 +13.6 0.0
07 14.08 ЮЗ 3-5
{5}
55 км ясно +13.8 +10.7 82 +13 +16 1016.8 1017.0
08 14.08 Ю 1-2
{4}
50 км 5/5 450 м
[]
+15.2 +11.4 78 +16 +20 1016.8 1017.0
09 14.08 Ю 3 60 км 3/3 600 м
[]
+16.2 +11.0 71 +16 +21 1016.7 1016.9
10 14.08 ЮЗ 3-6
{6}
50 км ясно +17.7 +12.1 70 +18 +27 1016.3 1016.5
11 14.08 ЮЗ 6 50 км 4/4 1080 м
[]
+19.4 +9.8 54 +20 +23 1015.8 1016.0
12 14.08 ЮЗ 6 45 км 3/3 1500 м
[]
+19.5 +7.9 47 +20 +24 1015.6 1015.8
13 14.08 ЮЗ 6 >70 км 10/10 1500 м
[]
+20.7 +9.5 49 +22 +22 комфорт 1015.3 1015.5
14 14.08 З 4 >70 км в посл. час дождь {морось} 10/0 2000 м
[]
+19.4 +9.7 53 +20 +24 1015.3 1015.5
15 14.08 СВ 3 60 км {дождь, морось} 10/10 1500 м
[]
+17.5 +12.4 72 +18 +18 1015.0 1015.2 0.0
16 14.08 С 3 65 км 10/10 1500 м
[]
+16.7 +12.6 77 +16 +16 1015.0 1015.2
17 14.08 СВ 2 60 км 10/0 2000 м
[]
+16.7 +12.3 75 +17 +18 1014.2 1014.4
18 14.08 В 2 55 км {дождь, морось} 10/0 2000 м
[]
+16.3 +13.0 81 +16 +16 1013.7 1013.9 +12.6 +21.6
19 14.08 ЮВ 2 55 км 10/0
[]
+15.6 +12.8 83 +15 +15 1013.1 1013.3
20 14.08 ЮВ 3 55 км 10/10 1500 м
[]
+15.2 +12.4 83 +14 +14 1012.9 1013.1
21 14.08 ЮЗ 4 45 км слаб. дождь {морось} 10/10 1500 м
[]
+17.1 +11.8 71 +17 +17 1012.8 1013.0 0.0
22 14.08 Ю 3 45 км слаб. дождь {морось} 10/10 1260 м
[]
+15.8 +12.0 78 +15 +15 1012.3 1012.5
23 14.08 Ю 3 13 км слаб. морось с дождем 10/10 1080 м
[]
+14.7 +12.8 88 +14 +14 1011.9 1012.1
00 15.08 Ю 4 8000 м дождь {морось} 9/9 1000 м
[]
+14.1 +13.1 94 +13 +13 1010.9 1011.1 2
01 15.08 Ю 5 12 км дождь {морось} 10/10 660 м
[]
+13.9 +12.9 94 +12 +12 1009.7 1009.9
02 15.08 ЮВ 6 23 км в посл. час дождь {морось} 10/10 240 м
[]
+14.0 +13.2 95 +12 +12 1008.5 1008.7
03 15.08 Ю 5 11 км слаб. морось {дождь} 9/9 270 м
[]
+14.2 +13.4 95 +12 +12 1007.5 1007.7 2
04 15.08 Ю 4-8
{9}
9000 м в посл. час морось {дымка} 9/9 120 м
[]
+14.6 +14.1 97 +13 +13 1006.7 1006.9
05 15.08 Ю 4-6
{7}
5000 м дождь {морось} 9/9 120 м
[]
+14.9 +14.5 97 +14 +14 1006.2 1006.4
06 15.08 Ю 4 10 км в посл. час дождь {морось} 10/10 100 м
[]
+15.6 +15.0 96 +15 +15 1006.1 1006.3 +13.8 +18.0 5
07 15.08 Ю 4-7
{8}
22 км в посл. час морось 9/9 180 м
[]
+16.2 +15.4 95 +15 +16 1005.7 1005.9
08 15.08 Ю 5-9
{9}
9000 м дождь {морось} 9/9 240 м
[]
+16.7 +15.9 95 +16 +16 1005.5 1005.7
09 15.08 Ю 5 19 км слаб. дождь {морось} 9/9 240 м
[]
+16.7 +16.0 96 +16 +16 1005.3 1005.5 2
10 15.08 ЮЗ 4 23 км в посл. час дождь {морось} 10/10 240 м
[]
+17.7 +16.5 93 +17 +17 1005.5 1005.7
11 15.08 ЮЗ 5 35 км 10/10 330 м
[]
+18.2 +16.2 88 +18 +18 1005.6 1005.8
12 15.08 З 6 40 км в посл. час дождь {морось} 10/10 420 м
[]
+18.5 +16.9 90 +19 +19 1006.3 1006.5 4
13 15.08 З 8 50 км в посл. час морось 10/10 630 м
[]
+19.5 +15.6 78 +21 +21 комфорт 1006.8 1007.0
14 15.08 З 7 55 км в посл. час дождь {морось} 9/9 720 м
[]
+19.1 +14.9 77 +20 +20 1007.3 1007.5
15 15.08 З 7 >70 км в посл. час дождь {морось} 9/9 800 м
[]
+19.5 +14.6 73 +21 +21 комфорт 1008.0 1008.2 0.1
16 15.08 З 7 60 км в посл. час дождь {морось} 9/9 660 м
[]
+19.0 +14.8 77 +20 +20 1008.5 1008.7
17 15.08 З 7 60 км 10/10 630 м
[]
+18.6 +14.6 78 +19 +19 1009.0 1009.2
18 15.08 З 6 10 км дождь {морось} 10/10 600 м
[]
+16.8 +15.1 90 +16 +16 1009.8 1010.0 +15.6 +20.3 0.2
19 15.08 З 3-6
{8}
60 км в посл. час дождь {морось} 10/0 2000 м
[]
+16.7 +14.4 86 +16 +16 1010.3 1010.5
20 15.08 З 4 40 км слаб. морось 10/10 600 м
[]
+16.7 +14.5 87 +16 +16 1011.2 1011.4
21 15.08 З 4 50 км в посл. час дождь {морось} 10/10 500 м
[]
+16.6 +14.3 86 +16 +16 1011.8 1012.0 0.1
22 15.08 З 4-6
{8}
45 км 10/0 2000 м
[]
+16.4 +14.4 88 +16 +16 1012.4 1012.6
23 15.08 З 4-8
{8}
50 км 10/0 2000 м
[]
+16.3 +14.0 86 +16 +16 1012.7 1012.9
00 16.08 З 4 45 км {дождь, морось} 10/0 2000 м
[]
+16.1 +13.6 85 +15 +15 1012.9 1013.1
01 16.08 З 4 17 км морось {дождь} 9/9 480 м
[]
+15.6 +13.5 87 +15 +15 1013.1 1013.3
02 16.08 З 3 8000 м слаб. морось с дождем 10/10 450 м
[]
+15.3 +14.1 93 +15 +15 1013.5 1013.7
03 16.08 ЮЗ 3 30 км слаб. морось {дождь} 10/10 480 м
[]
+15.1 +14.2 94 +14 +14 1013.6 1013.8 0.6
04 16.08 З 3 35 км в посл. час дождь {морось} 9/9 700 м
[]
+14.9 +14.1 95 +14 +14 1014.2 1014.4
05 16.08 З 2 40 км 10/10 1440 м
[]
+15.1 +14.2 94 +15 +15 1014.6 1014.8
06 16.08 З 3 40 км в посл. час дождь {морось} 10/10 600 м
[]
+15.4 +14.1 92 +15 +15 1015.1 1015.3 +14.8 +16.8 1
07 16.08 З 3-4
{4}
50 км 10/10 1500 м
[]
+16.5 +14.2 86 +16 +16 1015.3 1015.5
08 16.08 ЮЗ 3 55 км 8/8 570 м
[]
+17.8 +13.3 75 +18 +19 1015.4 1015.6
09 16.08 З 3 45 км 9/9 800 м
[]
+19.1 +13.3 69 +20 +21 1015.3 1015.5
10 16.08 ЮЗ 4 50 км 8/8 870 м
[]
+18.7 +12.2 66 +19 +21 1015.1 1015.3
11 16.08 ЮЗ 4 >70 км 8/8 930 м
[]
+19.7 +10.5 55 +21 +23 комфорт 1014.7 1014.9
12 16.08 ЮЗ 4 65 км 10/10 1200 м
[]
+20.0 +11.1 57 +22 +22 комфорт 1014.6 1014.8
13 16.08 ЮЗ 4 65 км 10/10 1170 м
[]
+20.9 +11.3 54 +23 +23 комфорт 1014.2 1014.4
14 16.08 ЮЗ 4 >70 км 9/9 1260 м
[]
+20.5 +10.9 54 +22 +23 комфорт 1013.5 1013.7
15 16.08 ЮЗ 5 >70 км 6/6 1500 м
[]
+20.5 +11.0 54 +22 +23 комфорт 1013.0 1013.2
16 16.08 Ю 5 60 км 10/10 1350 м
[]
+20.8 +12.1 57 +23 +23 комфорт 1012.5 1012.7
17 16.08 ЮЗ 5 45 км 9/9 1500 м
[]
+20.3 +12.6 61 +22 +22 комфорт 1012.0 1012.2
18 16.08 Ю 3 45 км 10/0
[]
+20.1 +12.3 61 +22 +22 комфорт 1011.6 1011.8 +15.4 +21.5
19 16.08 Ю 3 40 км 10/10 1500 м
[]
+19.3 +13.0 67 +21 +21 комфорт 1011.5 1011.7
20 16.08 Ю 3 35 км 10/10 1500 м
[]
+18.5 +13.4 72 +19 +19 1011.0 1011.2
21 16.08 Ю 4 28 км слаб. дождь {морось} 10/10 1500 м
[]
+17.7 +13.5 76 +17 +17 1010.6 1010.8 0.0
22 16.08 Ю 4 40 км слаб. дождь {морось} 10/10 1500 м
[]
+17.6 +13.3 76 +17 +17 1010.1 1010.3
23 16.08 Ю 4 35 км слаб. дождь {морось} 10/10 1470 м
[]
+16.9 +13.6 81 +16 +16 1009.1 1009.3
00 17.08 Ю 4 29 км слаб. дождь {морось} 10/10 1500 м
[]
+16.6 +13.8 84 +16 +16 1008.4 1008.6 0.6
01 17.08 Ю 4 25 км слаб. дождь 9/9 1170 м
[]
+16.0 +14.2 89 +15 +15 1007.8 1008.0
02 17.08 Ю 4 27 км морось с дождем 10/10 1260 м
[]
+16.3 +14.2 87 +16 +16 1006.8 1007.0
03 17.08 Ю 4 45 км в посл. час дождь {морось} 10/10 1080 м
[]
+15.9 +14.1 89 +15 +15 1006.0 1006.2 2
04 17.08 Ю 4 45 км слаб. дождь {морось} 9/9 1170 м
[]
+16.1 +14.1 88 +15 +15 1005.5 1005.7
05 17.08 Ю 4 7000 м слаб. морось с дождем 10/10 630 м
[]
+16.0 +14.5 91 +15 +15 1005.4 1005.6
06 17.08 Ю 4 55 км в посл. час дождь {морось} 10/10 600 м
[]
+16.4 +14.5 89 +16 +16 1005.0 1005.2 +15.7 +20.0 4
07 17.08 Ю 5-8
{8}
50 км в посл. час морось 10/10 500 м
[]
+17.1 +14.7 86 +16 +16 1005.1 1005.3
08 17.08 Ю 5 60 км в посл. час морось 10/10 210 м
[]
+17.3 +15.1 87 +17 +17 1005.1 1005.3
09 17.08 Ю 6 45 км в посл. час дождь {морось} 10/10 270 м
[]
+17.3 +15.9 91 +16 +16 1005.0 1005.2 0.4
10 17.08 Ю 6-10
{11}
19 км 10/10 240 м
[]
+17.6 +16.3 92 +17 +17 1005.3 1005.5
11 17.08 ЮЗ 6-10
{10}
30 км в посл. час морось 10/10 270 м
[]
+18.2 +16.4 89 +18 +18 1005.6 1005.8
12 17.08 Ю 6 50 км {дождь, морось} 10/10 450 м
[]
+19.2 +16.2 83 +20 +20 1005.5 1005.7 0.0
13 17.08 Ю 7 60 км 8/8 500 м
[]
+20.9 +16.7 77 +24 +25 комфорт 1005.4 1005.6
14 17.08 Ю 6 55 км 9/9 900 м
[]
+21.1 +16.6 75 +25 +25 комфорт 1005.2 1005.4
15 17.08 Ю 6 >70 км 8/8 630 м
[]
+21.3 +16.7 75 +25 +25 комфорт 1005.5 1005.7
16 17.08 Ю 7 >70 км 8/8 800 м
[]
+21.0 +16.6 76 +24 +25 комфорт 1005.5 1005.7
17 17.08 Ю 6 45 км осадки {морось} 10/10 360 м
[]
+19.4 +17.1 87 +21 +21 комфорт 1005.5 1005.7
18 17.08 Ю 4 65 км в посл. час дождь {морось} 10/10 200 м
[]
+18.5 +16.9 90 +19 +19 1005.3 1005.5 +16.4 +22.1 0.0
19 17.08 Ю 4 >70 км в посл. час дождь {морось} 9/0
[]
+17.2 +15.5 90 +17 +17 1005.3 1005.5
20 17.08 Ю 4 60 км 10/0
[]
+17.1 +16.0 93 +17 +17 1005.7 1005.9
21 17.08 ЮЗ 4 55 км {дождь, морось} 10/10 240 м
[]
+17.0 +15.8 93 +17 +17 1006.0 1006.2 0.1
22 17.08 ЮЗ 2 30 км 10/0
[]
+16.5 +15.5 94 +17 +17 1005.9 1006.1
23 17.08 ЮЗ 2 30 км 10/0
[]
+16.2 +15.4 95 +16 +16 1006.1 1006.3
00 18.08 Ю 2 29 км {дождь, морось} 10/0
[]
+16.2 +15.4 95 +16 +16 1005.8 1006.0
01 18.08 Ю 2 25 км 10/10 150 м
[]
+16.2 +15.4 95 +16 +16 1005.7 1005.9
02 18.08 Ю 2 24 км 10/10 150 м
[]
+16.0 +15.2 95 +16 +16 1005.4 1005.6
03 18.08 Ю 2 29 км 10/0
[]
+16.1 +14.6 91 +16 +16 1004.9 1005.1
04 18.08 Ю 4-6
{6}
30 км 10/0
[]
+15.9 +14.2 90 +15 +15 1005.0 1005.2
05 18.08 Ю 3-4
{6}
29 км 9/0
[]
+15.8 +14.3 91 +15 +15 1004.5 1004.7
06 18.08 Ю 3 18 км слаб. морось с дождем 10/10 200 м
[]
+15.7 +14.9 95 +15 +15 1004.4 1004.6 +15.6 +18.5 0.5
07 18.08 Ю 4 18 км слаб. дождь {морось} 10/10 180 м
[]
+15.7 +14.9 95 +15 +15 1004.3 1004.5
08 18.08 Ю 4 19 км в посл. час дождь 10/10 210 м
[]
+16.2 +15.2 94 +15 +15 1003.8 1004.0
09 18.08 Ю 5 60 км в посл. час дождь {морось} 10/10 360 м
[]
+16.0 +13.3 84 +15 +15 1004.1 1004.3 0.2
10 18.08 Ю 5 45 км в посл. час дождь 10/10 360 м
[]
+16.3 +13.4 83 +15 +15 1004.2 1004.4
11 18.08 Ю 4 35 км осадки {морось} 10/10 330 м
[]
+16.5 +14.6 89 +16 +16 1003.8 1004.0
12 18.08 Ю 4 40 км в посл. час дождь {морось} 10/10 400 м
[]
+17.2 +14.0 81 +17 +17 1003.9 1004.1 0.1
13 18.08 Ю 5 65 км 10/10 540 м
[]
+18.6 +13.6 73 +19 +19 1004.0 1004.2
14 18.08 ЮЗ 5 65 км 10/10 750 м
[]
+18.4 +13.4 73 +19 +19 1004.6 1004.8
15 18.08 ЮЗ 5 50 км в посл. час дождь {морось} 10/10 630 м
[]
+17.7 +14.2 80 +17 +17 1005.1 1005.3 0.0
16 18.08 З 5 >70 км в посл. час дождь {морось} 10/10 700 м
[]
+18.1 +12.8 71 +18 +18 1005.5 1005.7
17 18.08 ЮЗ 4 65 км 10/10 840 м
[]
+18.5 +13.5 73 +19 +19 1005.8 1006.0
18 18.08 ЮЗ 3 >70 км {дождь, морось} 4/0
[]
+18.3 +13.4 73 +19 +19 1006.1 1006.3 +15.6 +19.2 0.0
19 18.08 ЮЗ 2-4
{5}
60 км 1/1 1200 м
[]
+17.6 +12.8 73 +18 +18 1006.7 1006.9
20 18.08 ЮЗ 3-5
{5}
65 км 3/3 1020 м
[]
+17.0 +12.9 77 +17 +17 1007.5 1007.7
21 18.08 Ю 3 65 км 10/10 1350 м
[]
+16.9 +13.6 81 +17 +17 1007.7 1007.9
22 18.08 Ю 3 65 км 10/0 2000 м
[]
+16.3 +13.4 83 +16 +16 1008.2 1008.4
23 18.08 ЮЗ 3 50 км в посл. час дождь 5/5 700 м
[]
+16.1 +13.7 86 +16 +16 1008.3 1008.5
00 19.08 ЮЗ 3 45 км {дождь, дымка} ясно +15.4 +13.3 87 +15 +15 1008.5 1008.7 0.0
01 19.08 ЮЗ 4-6
{6}
45 км ясно +15.2 +13.3 88 +14 +14 1008.7 1008.9
02 19.08 Ю 4-7
{8}
45 км ясно +14.8 +12.8 88 +14 +14 1008.9 1009.1
03 19.08 Ю 5 45 км 6/0 2000 м
[]
+14.5 +12.3 87 +13 +13 1009.1 1009.3
05 19.08 ЮЗ 5 35 км 4/4 300 м
[]
+13.8 +12.0 89 +12 +12 1010.1 1010.3
06 19.08 Ю 5 35 км 1/1 300 м
[]
+14.0 +12.0 88 +12 +13 1010.7 1010.9 +13.8 +18.4 0.0
07 19.08 ЮЗ 5-9
{11}
30 км 3/3 330 м
[]
+15.0 +12.5 85 +14 +15 1011.1 1011.3
08 19.08 ЮЗ 6-9
{11}
35 км ясно +16.3 +12.7 79 +15 +17 1011.5 1011.7
09 19.08 ЮЗ 5 35 км 6/6 600 м
[]
+17.6 +12.7 73 +17 +19 1011.9 1012.1
10 19.08 ЮЗ 6 45 км 5/5 900 м
[]
+19.1 +11.7 62 +20 +22 1012.5 1012.7
11 19.08 ЮЗ 6-10
{10}
50 км 1/1 1200 м
[]
+19.4 +10.7 57 +20 +24 1012.8 1013.0

 

Местоположение метеостанции Эмден (Германия): широта 53.38 долгота 7.23 высота над уровнем моря 5 м.

В архиве по умолчанию представлена погода в Эмдене за последнюю неделю. Архивные данные за месяц целиком и за предыдущие месяцы, начиная с января 2011 года, Вы можете получить, выбрав интересующий диапазон дат из раскрывающегося списка и нажав кнопку "Ввод!".


*Определитесь, кто Вы:
робот инопланетянин человек

Внимание! Время в таблицах - всемирное. Для получения местного времени необходимо прибавить поправку, которая равна 1 ч.

Смотрите также архив погоды в соседних городах и на ближайших метеорологических станциях:

Погода в Ниев-Берта (Нидерланды) (21 км)
Погода на Базе ВВС Wittmundhaven (Германия) (35 км)
Погода на Острове Норденей (Германия) (38 км)
Погода в Гронингене (Нидерланды) (51 км)
Погода во Фризойте-Альтенойте (Германия) (58 км)
Погода в Хуибертгате (Нидерланды) (59 км)
Погода в Лоуверсоге (Нидерланды) (68 км)
Погода в Меппене (Германия) (74 км)
Погода на Маяке Alte Weser (Германия) (81 км)
Погода в Хогевене (Нидерланды) (85 км)

Пояснения к столбцам:

Ветер - указаны скорость ветра в м/с - средняя за 10 мин, порывы в срок и между сроками (в фигурных скобках) и направление, откуда дует ветер: С - северный, СВ - северо-восточный, В - восточный, ЮВ - юго-восточный, Ю - южный, ЮЗ - юго-западный, З - западный, СЗ - северо-западный.
Видимость - горизонтальная дальность видимости в метрах или километрах. При видимости от 1 до 10 км при отсутствии осадков обычно наблюдается дымка, при ухудшении видимости до 1 км и менее - туман. В сухую погоду видимость может ухудшаться дымом, пылью или мглою.
Явления - указаны атмосферные явления, наблюдавшиеся в срок или в последний час перед сроком; фигурными скобками обозначены явления, наблюдавшиеся между сроками (за 1-3 часа до срока); квадратными скобками обозначены град или гололедные отложения с указанием их диаметра в мм.
Облачность - указаны через наклонную черту общая и нижняя облачность в баллах и высота нижней границы облаков в метрах; квадратными скобками обозначены формы облаков: Ci - перистые, Cs - перисто-слоистые, Cc - перисто-кучевые, Ac - высококучевые, As - высокослоистые, Sc - слоисто-кучевые, Ns - слоисто-дождевые, Cu - кучевые, Cb - кучево-дождевые. Подробнее классификацию облаков см. в Атласе облаков (PDF).
T - Температура воздуха - температура, измеренная на высоте 2 м над землей.
Td - Температура точки росы - температура, при понижении до которой содержащийся в воздухе водяной пар достигнет насыщения.
f - Относительная влажность воздуха - влажноcть воздуха, измеренная на высоте 2 м над землей.
Te - Эффективная температура - температура, которую ощущает одетый по сезону человек в тени. Характеристика душности погоды. При расчете учитывается влияние влажности воздуха и скорости ветра на теплоощущения человека.
Tes - Эффективная температура на солнце - температура, которую ощущает человек, с поправкой на солнечный нагрев. Характеристика знойности погоды. Зависит от высоты солнца над горизонтом, облачности и скорости ветра. Ночью, в пасмурную погоду, а также при ветре 12 м/с и более поправка равна нулю.
P - Атмосферное давление - приведенное к уровню моря атмосферное давление.
Po - Атмосферное давление - измеренное на уровне метеостанции атмосферное давление.
Tmin - Минимальная температура - минимум температуры воздуха на высоте 2 м над землей.
Tmax - Максимальная температура - максимум температуры воздуха на высоте 2 м над землей.
R - Количество осадков - Количество выпавших осадков за период времени, мм. При наведении курсора мыши на число - период времени, за который выпало указанное количество осадков.
R24 - Количество осадков - Количество выпавших осадков за 24 часа, мм.
S - Снежный покров - Высота снежного покрова, см. При наведении курсора мыши на число - состояние снежного покрова и степень покрытия местности в баллах.